Flag for Spain Weather past 2 weeks in Zaragoza, Spain

Now
46 °F

Clear.


Feels Like: 46 °F
Forecast: 53 / 72 °F
Wind: 2 mph from Southeast

Location: Zaragoza / Aeropuerto

Current Time: Apr 21, 2015 at 7:06:28 AM

Latest Report: Apr 21, 2015 at 6:30 AM


Visibility: 10 mi

Pressure: 30.21 "Hg

Humidity: 87%

Dew point: 43 °F

Location of ZaragozaLocation

Historic Weather in Zaragoza — Graph

°F

Zaragoza temperature yesterday

Maximum temperature yesterday: 70 °F (at 4:30 PM)
Minimum temperature yesterday: 45 °F (at 7:30 AM)
Average temperature yesterday: 58 °F

Past Weeks' High & Low Weather Summary

 TemperatureHumidityPressure
High79 °F (Apr 14, 3:30 PM)94% (Apr 10, 1:30 AM)30.42 "Hg (Apr 10, 1:30 AM)
Low39 °F (Apr 7, 7:30 AM)15% (Apr 14, 6:00 PM)29.77 "Hg (Apr 18, 7:00 PM)
Average58 °F60%30.17 "Hg
* Reported Apr 6 6:30 AM — Apr 21 6:00 AM, Zaragoza, Weather by CustomWeather, © 2015

Note: Actual official high and low records may vary slightly from our data, if they occured in-between our weather recording intervals... More about our weather records

Advertising

Zaragoza weather history for previous 24 hours

 ConditionsComfort  
Time TempWeatherWind HumidityBarometerVisibility
6:00 AM
Tue, Apr 21
48 °FClear.2 mph82%30.18 "Hg10 mi
5:30 AM48 °FClear.1 mph82%30.18 "Hg10 mi
5:00 AM48 °FClear.2 mph82%30.18 "Hg10 mi
4:30 AM50 °FPassing clouds.3 mph76%30.18 "HgN/A
4:00 AM48 °FClear.1 mph82%30.18 "Hg10 mi
3:30 AM50 °FClear.No wind76%30.18 "Hg10 mi
3:00 AM52 °FClear.No wind72%30.18 "Hg10 mi
2:30 AM52 °FClear.No wind72%30.18 "Hg10 mi
2:00 AM52 °FClear.1 mph77%30.18 "Hg10 mi
1:30 AM54 °FClear.1 mph67%30.18 "Hg10 mi
1:00 AM54 °FClear.1 mph72%30.18 "Hg10 mi
12:30 AM55 °FClear.1 mph67%30.18 "Hg10 mi
12:00 AM55 °FClear.2 mph63%30.18 "Hg10 mi
11:30 PM
Mon, Apr 20
57 °FClear.No wind63%30.15 "Hg10 mi
11:00 PM57 °FClear.8 mph63%30.15 "Hg10 mi
10:30 PM57 °FClear.9 mph63%30.15 "Hg10 mi
10:00 PM59 °FClear.8 mph59%30.15 "Hg10 mi
9:30 PM61 °FSunny.2 mph59%30.12 "Hg10 mi
9:00 PM66 °FSunny.2 mph43%30.12 "Hg10 mi
8:30 PM68 °FSunny.1 mph38%30.12 "Hg10 mi
8:00 PM68 °FSunny.2 mph38%30.12 "Hg10 mi
7:30 PM70 °FPassing clouds.3 mph33%30.12 "HgN/A
7:00 PM70 °FPassing clouds.5 mph31%30.12 "HgN/A
6:30 PM70 °FPassing clouds.6 mph33%30.12 "HgN/A
6:00 PM70 °FPassing clouds.5 mph25%30.12 "HgN/A
5:30 PM70 °FPassing clouds.6 mph29%30.12 "HgN/A
5:00 PM70 °FPassing clouds.6 mph31%30.12 "HgN/A
4:30 PM70 °FPassing clouds.5 mph33%30.12 "HgN/A
4:00 PM68 °FPassing clouds.5 mph35%30.15 "HgN/A
3:30 PM68 °FPassing clouds.6 mph38%30.15 "HgN/A
3:00 PM68 °FPassing clouds.2 mph38%30.15 "HgN/A
2:30 PM66 °FPassing clouds.6 mph37%30.18 "HgN/A
2:00 PM66 °FPassing clouds.3 mph40%30.18 "HgN/A
1:30 PM64 °FPassing clouds.5 mph43%30.18 "HgN/A
1:00 PM63 °FPassing clouds.3 mph45%30.21 "HgN/A
12:30 PM61 °FPassing clouds.3 mph55%30.21 "HgN/A
12:00 PM59 °FPassing clouds.7 mph59%30.21 "HgN/A
11:30 AM59 °FPassing clouds.6 mph59%30.21 "HgN/A
11:00 AM57 °FPassing clouds.6 mph63%30.21 "HgN/A
10:30 AM55 °FPassing clouds.7 mph63%30.21 "HgN/A
10:00 AM54 °FPassing clouds.7 mph72%30.21 "HgN/A
9:30 AM54 °FPassing clouds.7 mph72%30.18 "HgN/A
9:00 AM50 °FSunny.3 mph82%30.18 "Hg10 mi
8:30 AM46 °FSunny.No wind87%30.18 "Hg10 mi
8:00 AM46 °FClear.2 mph87%30.15 "Hg10 mi
7:30 AM45 °FPassing clouds.6 mph87%30.15 "HgN/A
7:00 AM46 °FClear.7 mph82%30.15 "Hg10 mi
Weather by CustomWeather, © 2015

See weather overviewHow to use our weather pages